This demonstration page uses our WeatherBlox Daily Observations layout. Learn more.

41.55636, -103.73856

Hourly Observations for October 21, 2019

Temp ( °F °C ) Dew Point ( °F °C ) Humidity (%) Winds ( mph kmh ) Pressure ( in mb ) Visibility ( mi km ) Precip ( " mm )
12:58 am 00:58 Partly Cloudy 34 1 29 -1.8 82 82 NNW 31 50 29.88 1012 10 16.09344 0 0
1:58 am 01:58 Clear 33 0.6 28 -2.4 81 81 NW 23 37 29.88 1012 10 16.09344 0 0
2:58 am 02:58 Clear 33 0.3 27 -3 79 79 NW 22 35 29.91 1013 10 16.09344 0 0
3:58 am 03:58 Clear 31 -0.4 25 -3.8 78 78 NW 21 33 29.94 1014 10 16.09344 0 0
4:58 am 04:58 Clear 31 -0.6 25 -3.9 79 79 NW 18 30 29.94 1014 10 16.09344 0 0
5:58 am 05:58 Clear 30 -1.2 25 -3.9 82 82 NW 20 31 29.94 1014 10 16.09344 0 0
6:58 am 06:58 Clear 30 -1.2 24 -4.6 78 78 NW 16 26 29.97 1015 10 16.09344 0 0
7:58 am 07:58 Sunny 30 -1.1 24 -4.4 79 79 NW 14 22 29.97 1015 10 16.09344 0 0
8:58 am 08:58 Sunny 35 1.4 25 -4.1 67 67 NNW 23 37 30 1016 10 16.09344 0 0
9:58 am 09:58 Sunny 38 3.1 26 -3.5 62 62 NNW 24 39 29.97 1015 10 16.09344 0 0
10:58 am 10:58 Mostly Sunny 42 5.3 26 -3.6 53 53 NNW 28 44 29.97 1015 10 16.09344 0 0
11:58 am 11:58 Mostly Sunny 42 5.7 25 -4.1 50 50 NNW 26 43 30 1016 10 16.09344 0 0
12:58 pm 12:58 Mostly Cloudy 44 6.7 21 -6.3 39 39 NNW 25 41 29.97 1015 10 16.09344 0 0
1:58 pm 13:58 Mostly Cloudy 43 5.9 20 -6.9 40 40 N 24 39 30 1016 10 16.09344 0 0
2:58 pm 14:58 Mostly Cloudy 45 7.2 20 -6.5 37 37 NNW 17 28 29.97 1015 10 16.09344 0 0
3:58 pm 15:58 Mostly Cloudy 46 8 17 -8.6 30 30 N 26 43 30 1016 10 16.09344 0 0
4:58 pm 16:58 Mostly Cloudy 43 6.3 17 -8.2 35 35 NNW 21 33 30.06 1018 10 16.09344 0 0
5:58 pm 17:58 Cloudy 42 5.5 19 -7.3 40 40 NNW 22 35 30.09 1019 10 16.09344 0 0
6:58 pm 18:58 Clear 34 1.1 21 -5.9 60 60 NNW 10 17 30.12 1020 10 16.09344 0 0
7:58 pm 19:58 Clear 32 0.2 22 -5.6 65 65 NW 12 19 30.15 1021 10 16.09344 0 0
8:58 pm 20:58 Partly Cloudy 30 -1 23 -5.1 74 74 NW 8 13 30.18 1022 10 16.09344 0 0
9:58 pm 21:58 Mostly Clear 29 -1.9 23 -4.9 80 80 WNW 9 15 30.18 1022 10 16.09344 0 0
10:58 pm 22:58 Mostly Cloudy 31 -0.6 25 -3.7 80 80 NW 10 17 30.18 1022 10 16.09344 0 0
11:58 pm 23:58 Mostly Clear 29 -1.4 25 -3.7 85 85 WNW 10 17 30.18 1022 10 16.09344 0 0

Powered by AerisWeather